This demonstration page uses our WeatherBlox Daily Observations layout. Learn more.

Left ArrowRight Arrow

39.51506, -84.39828

Hourly Observations for June 4, 2016

Temp ( °F °C ) Dew Point ( °F °C ) Humidity (%) Winds ( mph kmh ) Pressure ( in mb ) Visibility ( mi km ) Precip ( " mm )
12:15 am 00:15 Partly Cloudy 74 23.6 56 13.3 53 53 N N/A 30.00 1016 10 16 N/A
12:35 am 00:35 Partly Cloudy 74 23.6 57 13.9 55 55 N N/A 30.00 1016 10 16 N/A
12:55 am 00:55 Mostly Cloudy 74 23.6 56 13.2 52 52 N N/A 30.00 1016 10 16 N/A
1:15 am 01:15 Mostly Cloudy 74 23.6 53 11.6 47 47 N N/A 30.00 1016 10 16 N/A
1:35 am 01:35 Mostly Cloudy 74 23.6 56 13.2 52 52 N N/A 30.00 1016 10 16 N/A
1:55 am 01:55 Mostly Cloudy 73 22.9 60 15.5 63 63 N N/A 29.97 1015 10 16 N/A
2:15 am 02:15 Mostly Cloudy 71 21.5 59 15.1 67 67 N N/A 29.97 1015 10 16 N/A
2:35 am 02:35 Mostly Cloudy 71 21.4 59 14.8 66 66 N N/A 29.97 1015 10 16 N/A
2:55 am 02:55 Mostly Cloudy 69 20.8 60 15.7 73 73 N N/A 29.97 1015 10 16 N/A
3:15 am 03:15 Mostly Cloudy 69 20.8 60 15.8 73 73 N N/A 29.97 1015 10 16 N/A
3:35 am 03:35 Cloudy 69 20.8 61 15.9 74 74 N N/A 29.97 1015 10 16 N/A
3:55 am 03:55 Mostly Cloudy 69 20.8 60 15.4 71 71 N N/A 29.97 1015 10 16 N/A
4:15 am 04:15 Cloudy 69 20.8 60 15.5 72 72 N N/A 29.97 1015 10 16 N/A
4:35 am 04:35 Cloudy 69 20.8 61 15.9 74 74 N N/A 29.97 1015 10 16 N/A
4:55 am 04:55 Cloudy 69 20.8 60 15.8 73 73 N N/A 29.97 1015 10 16 N/A
5:15 am 05:15 Mostly Cloudy with Light Rain 69 20.8 60 15.7 73 73 N N/A 29.97 1015 10 16 N/A
5:35 am 05:35 Mostly Cloudy with Light Rain 69 20.8 62 16.4 76 76 N N/A 29.97 1015 10 16 N/A
5:55 am 05:55 Cloudy with Light Rain 69 20.8 62 16.7 77 77 N N/A 29.97 1015 10 16 N/A
6:35 am 06:35 Cloudy with Light Rain 69 20.8 63 17.1 79 79 N N/A 29.97 1015 10 16 N/A
6:55 am 06:55 Cloudy with Light Rain 69 20.8 63 17.3 80 80 N N/A 29.97 1015 10 16 N/A
7:15 am 07:15 Cloudy with Rain 69 20.8 63 17.3 80 80 N N/A 30.00 1016 5 8 N/A
7:35 am 07:35 Cloudy with Light Rain 69 20.8 63 17.3 80 80 N N/A 30.00 1016 7 11 N/A
7:55 am 07:55 Cloudy 69 20.8 63 17.1 79 79 N N/A 29.97 1015 10 16 N/A
8:15 am 08:15 Cloudy with Rain 69 20.8 63 17 79 79 N N/A 29.97 1015 7 11 N/A
8:35 am 08:35 Mostly Cloudy 69 20.8 63 17.1 79 79 N N/A 29.97 1015 10 16 N/A
8:55 am 08:55 Mostly Cloudy 70 21 61 16.1 74 74 N N/A 29.97 1015 10 16 N/A
9:15 am 09:15 Cloudy 72 22.3 62 16.8 71 71 N N/A 29.94 1014 10 16 N/A
9:35 am 09:35 Mostly Cloudy 74 23.6 63 17.1 67 67 NE 8 13 29.94 1014 10 16 N/A
9:55 am 09:55 Cloudy 74 23.6 61 15.9 62 62 NE 7 11 29.94 1014 10 16 N/A
10:15 am 10:15 Cloudy 74 23.6 60 15.5 61 61 N N/A 29.94 1014 10 16 N/A
10:35 am 10:35 Cloudy 74 23.6 58 14.6 57 57 E 6 9 29.94 1014 10 16 N/A
10:55 am 10:55 Cloudy 77 25.1 60 15.4 55 55 ENE 5 7 29.94 1014 10 16 N/A
11:15 am 11:15 Partly Cloudy 77 25.1 58 14.4 52 52 ENE 7 11 29.91 1013 10 16 N/A
11:35 am 11:35 Partly Cloudy 80 26.5 59 15.2 50 50 E 7 11 29.91 1013 10 16 N/A
11:55 am 11:55 Mostly Cloudy 80 26.5 59 15.1 50 50 ESE 7 11 29.91 1013 10 16 N/A
12:15 pm 12:15 Mostly Cloudy 80 26.5 60 15.6 51 51 SE 8 13 29.91 1013 10 16 N/A
12:35 pm 12:35 Mostly Cloudy 80 26.5 60 15.8 52 52 SE 9 15 29.91 1013 10 16 N/A
12:55 pm 12:55 Cloudy 78 25.8 60 15.4 53 53 SSE 9 15 29.88 1012 10 16 N/A
1:15 pm 13:15 Cloudy with Light Rain 77 25.1 59 15 54 54 SSE 9 15 29.88 1012 10 16 N/A
1:35 pm 13:35 Cloudy with Light Rain 76 24.2 62 16.4 62 62 SSE 7 11 29.88 1012 10 16 N/A
1:55 pm 13:55 Cloudy with Heavy Rain 74 23.6 66 19.1 76 76 SSE 3 6 29.88 1012 2 3 N/A
2:15 pm 14:15 Cloudy 74 23.6 67 19.2 76 76 NNW 3 6 29.88 1012 10 16 N/A
2:35 pm 14:35 Cloudy 74 23.6 67 19.3 77 77 NW 6 9 29.85 1011 10 16 N/A
2:55 pm 14:55 Cloudy 74 23.6 66 19 75 75 NNW 6 9 29.85 1011 10 16 N/A
3:15 pm 15:15 Mostly Cloudy 74 23.6 66 18.7 74 74 NNW 7 11 29.85 1011 10 16 N/A
3:35 pm 15:35 Mostly Cloudy 74 23.6 65 18.4 73 73 N N/A 29.85 1011 10 16 N/A
3:55 pm 15:55 Mostly Cloudy 74 23.6 65 18.4 73 73 N 3 6 29.83 1010 10 16 N/A
4:15 pm 16:15 Mostly Cloudy 77 25.1 67 19.4 71 71 NE 3 6 29.83 1010 10 16 N/A
4:35 pm 16:35 Partly Cloudy 77 25.1 66 19 69 69 N N/A 29.83 1010 10 16 N/A
4:55 pm 16:55 Sunny 78 25.7 65 18.5 65 65 NE 3 6 29.83 1010 10 16 N/A
5:15 pm 17:15 Partly Cloudy 77 25.1 66 18.7 68 68 NNE 5 7 29.80 1009 10 16 N/A
5:35 pm 17:35 Mostly Cloudy 79 26.2 67 19.6 67 67 ENE 3 6 29.77 1008 10 16 N/A
5:55 pm 17:55 Cloudy 77 25.1 65 18.4 66 66 SE 9 15 29.80 1009 10 16 N/A
6:15 pm 18:15 Mostly Cloudy 77 25.1 67 19.4 71 71 E 13 20 29.77 1008 10 16 N/A
6:30 pm 18:30 Cloudy with Light Rain 74 23.6 68 19.9 80 80 E 9 15 29.77 1008 2 3 N/A
6:55 pm 18:55 Cloudy 74 23.6 69 20.3 82 82 SSE 12 19 29.77 1008 10 16 N/A
7:15 pm 19:15 Cloudy with Heavy Rain 72 22.3 67 19.2 83 83 SSW 9 15 29.77 1008 4 6 N/A
7:35 pm 19:35 Cloudy with Heavy Rain 69 20.8 64 17.7 83 83 NW 5 7 29.80 1009 1 1 N/A
7:55 pm 19:55 Mostly Cloudy 69 20.8 64 17.8 83 83 WNW 5 7 29.80 1009 10 16 N/A
8:15 pm 20:15 Partly Cloudy 69 20.8 64 17.7 83 83 N N/A 29.80 1009 10 16 N/A
8:35 pm 20:35 Partly Cloudy 69 20.8 64 17.7 83 83 SSE 5 7 29.80 1009 10 16 N/A
8:55 pm 20:55 Sunny 69 20.8 64 17.8 83 83 N N/A 29.80 1009 10 16 N/A
9:15 pm 21:15 Partly Cloudy 69 20.8 64 18 84 84 N N/A 29.80 1009 10 16 N/A
9:35 pm 21:35 Mostly Cloudy with Light Rain 69 20.8 64 18 84 84 SW 5 7 29.80 1009 10 16 N/A
9:55 pm 21:55 Mostly Cloudy with Light Rain 69 20.8 64 18 84 84 N N/A 29.80 1009 10 16 N/A
10:15 pm 22:15 Partly Cloudy 69 20.8 64 18 84 84 N N/A 29.80 1009 10 16 N/A
10:35 pm 22:35 Mostly Cloudy 69 20.8 64 18 84 84 N N/A 29.80 1009 10 16 N/A
10:55 pm 22:55 Cloudy 69 20.8 64 18 84 84 N N/A 29.80 1009 10 16 N/A
11:15 pm 23:15 Partly Cloudy 69 20.8 64 18 84 84 SSW 3 6 29.80 1009 10 16 N/A
11:35 pm 23:35 Mostly Cloudy 69 20.8 64 18 84 84 SSW 5 7 29.80 1009 10 16 N/A
11:55 pm 23:55 Partly Cloudy 69 20.8 64 18 84 84 SSW 5 7 29.80 1009 10 16 N/A

Powered by AerisWeather